Regional Weather Roundup
Issued by NWS Wakefield, VA

Home | Current Version | Previous Version | Graphics & Text | Print | Product List | Glossary On
Versions: 1 2 3 4 5 6 7 8 9 10 11 12 13 14 15 16 17 18 19 20 21 22 23 24 25 26 27
000
ASUS41 KAKQ 171315
RWRAKQ

REGIONAL WEATHER ROUNDUP
NATIONAL WEATHER SERVICE WAKEFIELD VA
900 AM EDT THU AUG 17 2017

Note: "fair" indicates few or no clouds below 12,000 feet with no
significant weather and/or obstructions to visibility. * = Denotes
station may not report precipitation (e.g., rain,snow,etc.),
thunder or fog.

VAZ042-051-052>054-056-171400-
NORTHERN VIRGINIA

CITY           SKY/WX    TMP DP  RH WIND       PRES   REMARKS
WASH NATIONAL  MOSUNNY   80  74  81 S6        30.04R
DULLES         PTSUNNY   77  73  87 CALM      30.04S
FORT BELVOIR   SUNNY     80  72  78 CALM      30.03S
QUANTICO       PTSUNNY   80  76  87 S9        30.04S
FREDERICKSBRG* SUNNY     77  77  99 S3        30.03S
STAFFORD*      SUNNY     77  75  96 CALM      30.08S
WARRENTON      CLOUDY    76  71  84 CALM      30.04
CULPEPER*      PTSUNNY   74  74 100 CALM      30.05S
MANASSAS*      SUNNY     77  72  84 S5        30.04S
LEESBURG*      SUNNY     75  72  88 CALM      30.06S
WINCHESTER     SUNNY     72  66  83 CALM      30.05S
FRONT ROYAL*   CLOUDY    70  70 100 CALM      30.05S VSB 1/2
LURAY*         MOSUNNY   72  70  94 CALM      30.06S
$$

VAZ048-049-060>072-079>083-171400-
CENTRAL AND SOUTH CENTRAL VIRGINIA

CITY           SKY/WX    TMP DP  RH WIND       PRES   REMARKS
RICHMOND       PTSUNNY   76  76 100 SW6       30.05R FOG
CHESTERFIELD*  FAIR      76  74  93 S7        30.05R
PETERSBURG*    CLOUDY    74  74 100 CALM      30.06R FOG
HANOVER        MOSUNNY   79  72  79 MISG      30.05S
TAPPAHANNOCK*  PTSUNNY  N/A N/A N/A CALM      30.05S HAZE
QUINTON*       FOG       74  74 100 S7        30.05R VSB 3/4
CHARLOTTSVILLE SUNNY     76  71  85 CALM      30.05S
GORDONSVILLE*  MOSUNNY   76  73  89 CALM      30.04S
ORANGE*        MOSUNNY   77  72  83 SW3       30.04S
LOUISA*        MOSUNNY   79  72  78 SW3       30.04S
BUMPASS*       PTSUNNY   78  75  92 SW3       30.04S
FARMVILLE*     CLOUDY    76  74  92 CALM      30.04R
CREWE*         CLOUDY    76  72  86 CALM      30.05R
FORT PICKETT*  PTSUNNY  N/A N/A N/A S7        30.05S
CHASE CITY*    CLOUDY    76  76 100 CALM      30.06R
CLARKSVILLE*   CLOUDY    77  73  88 S3        30.05R
SOUTH HILL*    CLOUDY    74  74 100 S3        30.11R
LAWRENCEVILLE* CLOUDY    75  74  97 SE5       30.05S VSB 1
EMPORIA*       FOG       73  73 100 CALM      30.07R VSB 1/4
$$

VAZ088>098-171400-
SOUTHEAST VIRGINIA

CITY           SKY/WX    TMP DP  RH WIND       PRES   REMARKS
NORFOLK        SUNNY     81  73  76 S6        30.04S
VIRGINIA BEACH MOSUNNY   78  73  84 S5        30.04S
NORFOLK NAVAL  MOSUNNY   82  72  71 S5        30.05S
WEST POINT*    CLOUDY    76  75  94 SW5       30.06S
SALUDA*        FAIR      79  77  94 SW5       30.04S
NEWPORT NEWS   SUNNY     80  75  84 SW5       30.04S
LANGLEY AFB    SUNNY     81  75  82 SW3       30.04S
FORT EUSTIS    NOT AVBL
WILLIAMSBURG*  PTSUNNY   79  79 100 CALM      30.05F
HR EXEC AP*    FAIR      77  73  88 CALM      30.03S
FRANKLIN*      PTSUNNY   75  75  98 S3        30.05S
US460-WAKEFLD  FOG       75  75 100 VRB3      30.05R VSB 1
$$

VAZ020-022-025-037-045-171400-
WEST CENTRAL AND SOUTHWEST VIRGINIA

CITY           SKY/WX    TMP DP  RH WIND       PRES   REMARKS
STAUNTON*      SUNNY     70  67  89 CALM      30.09S
WAYNESBORO*    SUNNY     73  70  92 CALM      30.08F
HOT SPRINGS VA SUNNY     70  63  78 CALM      30.20F
LYNCHBURG      SUNNY     76  72  87 S3        30.07R
DANVILLE       SUNNY     79  76  90 CALM      30.05S
SOUTH BOSTON*  CLOUDY    77  75  95 CALM      30.05S
MARTINSVILLE   SUNNY     78  71  81 CALM      30.09R
ROANOKE        MOSUNNY   77  70  79 W3        30.10R
BLACKSBURG     SUNNY     73  70  91 CALM      30.16S
DUBLIN*        SUNNY     75  71  87 SW5       30.15S
MARION*        MOSUNNY   72  66  82 W6        30.18S
HILLSVILLE*    PTSUNNY   68  64  86 CALM      30.16S FOG
RICHLANDS*     FAIR      72  66  80 SW3       30.17R
WISE*          CLOUDY    73  73 100 SW3       30.17R
ABINGDON*      MOSUNNY   74  74 100 CALM      30.15R
$$

MDZ021>025-VAZ099-100-171400-
SOUTHERN MARYLAND AND THE DELMARVA PENINSULA

CITY           SKY/WX    TMP DP  RH WIND       PRES   REMARKS
PATUXENT RIVER CLOUDY    73  70  90 CALM      30.04F
BAY BRIDGE APT MOSUNNY   82  75  78 S5        30.04S
LEONARDTOWN    CLOUDY    72  70  94 SE5       30.06S
DOVER          MOSUNNY   77  70  78 CALM      30.03F
GEORGETOWN     PTSUNNY   77  74  90 CALM      30.05S FOG
EASTON         MOSUNNY   81  73  78 S6        30.08R
CAMBRIDGE      PTSUNNY   77  73  88 CALM      30.04S
SALISBURY      CLOUDY    75  75 100 CALM      30.05R
OCEAN CITY     CLOUDY    79  74  84 SW3       30.06R
WALLOPS ISLAND PTSUNNY   78  75  90 S6        30.05S
ACCOMACK*      PTSUNNY   79  76  89 CALM      30.04S
$$

NCZ012>017-030>032-171400-
NORTH CENTRAL AND EASTERN NORTH CAROLINA

CITY           SKY/WX    TMP DP  RH WIND       PRES   REMARKS
ROANOKE RAPIDS FOG       75  75 100 CALM      30.05S VSB 1/2
RALEIGH        MOSUNNY   83  75  77 SE3       30.05S
ELIZABETH CITY SUNNY     79  77  94 S3        30.05S
AHOSKIE*         N/A     75  75  98 S6        30.05F FOG
EDENTON*       SUNNY     81  76  84 CALM      30.06S
CURRITUCK*     SUNNY     78  69  74 CALM      30.06S
KILL DEVIL HLS SUNNY     76  76  98 CALM      30.05R
MANTEO         MOSUNNY   77  73  87 CALM      30.07R
CAPE HATTERAS  SUNNY     82  75  79 VRB3      30.05S
TARBORO*       NOT AVBL
GOLDSBORO      MOSUNNY   81  81 100 SE3       30.04R
WASHINGTON     SUNNY     81  77  89 SE5       30.05F
GREENVILLE     SUNNY     82  77  83 CALM      30.06S
NEW BERN       SUNNY     82  78  88 SE3       30.06S
WILMINGTON     PTSUNNY   84  79  85 SE7       30.04R HX  96
$$

VAZ048-171400-
ELSEWHERE

CITY           SKY/WX    TMP DP  RH WIND       PRES   REMARKS
HARRISBURG PA  PTSUNNY   73  65  75 CALM      30.05S
BALTIMORE      CLOUDY    76  75  97 E6        30.04R FOG
ANNAPOLIS      PTSUNNY   81  77  88 CALM      30.03S
ANDREWS AFB    SUNNY     77  72  83 CALM      30.03S
PHILADELPHIA   MOSUNNY   76  62  62 NE9       30.06S
HENDERSON NC   SUNNY     75  70  83 S6        30.06R
GREENSBORO     MOSUNNY   81  75  82 CALM      30.07R
ROCKY MOUNT    CLOUDY    76  76 100 SE3       30.05S FOG
$$

VAZ100-171400-
MARINE

STATION/POSITION TIME  TEMP    WIND        PRES    WAVE   SWELL
                       AIR SEA DIR/SP/G            HT/PER HT/PER
                 (UTC) (F)     (DEG/KT/KT) (MB)    (FT/S) (FT/S)
BRANDYWINE LGT   1242   76     110/  5/  5 1017.9R
CAPE MAY NJ      1248   78 77  110/  5/  6 1016.9S
LEWES DE         1248   77 76   CALM  /  1 1017.3F
15NM E FENWICK I 1250   77 77  290/  2/  2 1018.0R   2/ 7   2/ 7
OCEAN-CITY-INLET 1248   78 78  260/  2/  3 1017.9R
WACHAPREAGUE VA  1248   81 81  250/  3/  5 1017.4F
THOMAS POINT MD  1300   78 80  190/  5/  5   N/A
GOOSES REEF MD   1300   79 80  200/ 10/ 10 1017.8    1
COVE POINT MD    1248   76     210/  6/  7 1017.9S
SOLOMONS ISLAND  1248   75 81  180/  5/  8   N/A
BISHOPS HEAD MD  1248   76 82  270/ 11/ 12 1018.0R
PINEY POINT MD   1248           90/  6/  7   N/A
POTOMAC MD       1300   76 80   10/  8/ 10 1016.9    1
CAMBRIDGE MD     1248   78 81              1018.1R
LEWISETTA VA     1248   77 82   30/  5/  9 1017.4S
RAPPAHANNOCK LGT 1248          190/  7/  7 1017.9S
STINGRAY PT      1300   79 81  250/  6/  6 1017.4
YORK RVR RNG VA  1248   80     230/  6/  7 1017.6S
YORKTOWN VA      1248   79 81  220/  6/  8 1016.8F
JAMESTOWN VA     1300      83  200/  4/  6   N/A     0
DOMINION TERM VA 1248   78     210/  4/  5 1017.3F
KIPTOPEKE VA     1248      79  190/  5/  5   N/A
CHES BAY BRIDGE  1248   77 79  180/  4/  5 1017.1F
CAPE HENRY VA    1248   78     160/  3/  5   N/A
WILLOUBY STN VA  1248   79     220/  6/  6 1017.2F
S CRANEY ISL VA  1248   79     190/  4/  5 1017.0F
CAPE HENRY BUOY  1300      78                N/A     2/ 8
1ST LANDING BUOY 1300   77 78              1017.3    1
64NM E OF VA BCH 1250   76 77   10/  2/  2 1018.2R   2/ 8   2/ 8
DUCK PIER NC     1248   80 78  100/  2/  2 1017.5R
44100 DUCK FRF   1205      78                N/A     2/ 8
44056 DUCK FRF   1300      78                N/A     2/ 8
OREGON INLET NC  1242   78 82  360/  3/  5 1017.6R
HATTERAS NC      1248   80 83   20/  5/  6 1017.5R
DIAMOND SHLS NC  1250   79 82   10/  6/  8 1017.4R   2/ 7   2/ 7
CAPE LOOKOUT NC  1300   81      90/  5/  6 1017.3R
$$




USA.gov is the U.S. government's official web portal to all federal, state and local government web resources and services.